カタログに戻る

STARLINK-31426

運用中通信VLEO
NORAD 59249·PAYLOAD·🇺🇸 United States

打ち上げ Mar 16, 2024 から Cape Canaveral Space Force Station

Loading…

次のパス (今後24時間)

TLE

最新Source: CelesTrak SupGP

元期: Sep 15, 2026, 02:47 UTC

1 59249C 24049U   26258.11645833  .00031511  00000+0  11416-2 0  2585
2 59249  43.0013 153.9524 0001371 276.2080  98.9387 15.27555287    10

AllMySatでSTARLINK-31426をリアルタイム追跡

Download on the App Store